Simultaneous Nadir Overpasses (SNOs) Predictions

Prediction of SNOs between AQUA and METOP-C Satellite Orbit:

Table of predicted SNOs for the next 14.0 days since TLE Epoch: 1/24/2025
Index Date (AQUA) Time (AQUA) Lat,Lon (AQUA) SZA (AQUA ) Date (METOP-C) Time (METOP-C) Lat,Lon (METOP-C) SZA (METOP-C ) Distance(km) Time Diff (sec)
1 01/26/2025 23:55:33 76.13,-177.95 94.51 01/26/2025 23:55:23 76.16,-177.92 94.54 3.25 10
2 01/27/2025 00:44:53 -76.22, -10.56 85.41 01/27/2025 00:46:03 -76.21, -10.42 85.42 3.88 70
3 01/29/2025 12:45:08 76.15, -10.35 93.86 01/29/2025 12:44:19 76.13, -10.27 93.84 3.41 49
4 01/29/2025 13:34:27 -76.19, 157.21 86.12 01/29/2025 13:34:59 -76.18, 157.24 86.12 1.08 32
5 02/01/2025 01:34:32 75.68, 158.79 92.68 02/01/2025 01:33:26 75.62, 155.80 92.64 82.79 66
6 02/01/2025 02:24:00 -76.15, -35.01 86.86 02/01/2025 02:23:55 -76.18, -34.99 86.83 3.19 5
7 02/01/2025 03:13:21 76.21, 132.48 93.20 02/01/2025 03:14:34 76.24, 132.56 93.23 4.34 73
8 02/03/2025 15:13:32 -76.17, 132.63 87.58 02/03/2025 15:12:51 -76.17, 132.74 87.58 2.83 41
9 02/03/2025 16:02:52 76.18, -59.74 92.43 02/03/2025 16:03:31 76.18, -59.89 92.43 3.97 39
10 02/06/2025 04:03:01 -76.13, -59.56 88.39 02/06/2025 04:01:48 -76.10, -59.74 88.41 5.86 73
11 02/06/2025 04:52:22 76.20, 107.88 91.68 02/06/2025 04:52:26 76.20, 107.93 91.68 1.25 4



Historial Predications of SNOs between AQUA and METOP-C
